GW3035 Weather Reports


time (UTC)temp
C
wind
direction
speed
KPH
gust
KPH
rain 1hr
cm
rain 24hr
cm
rain mn
cm
humidity
%
barometer
mb
20260503183030 12 0 0.0 1.6 0.00 0.00 0.00 61 1019.1
20260503182529 12 0 0.0 3.2 0.00 0.00 0.00 62 1019.1
20260503182038 12 0 1.6 3.2 0.00 0.00 0.00 62 1019.1
20260503181529 12 0 0.0 3.2 0.00 0.00 0.00 61 1019.0
20260503181035 12 0 1.6 3.2 0.00 0.00 0.00 67 1019.1
20260503180529 12 0 0.0 1.6 0.00 0.00 0.00 61 1019.1
20260503180038 12 0 1.6 3.2 0.00 0.00 0.00 64 1019.1
20260503175535 12 0 0.0 3.2 0.00 0.00 0.00 61 1019.0
20260503175029 12 0 1.6 4.8 0.00 0.00 0.00 61 1019.1
20260503174529 13 0 3.2 4.8 0.00 0.00 0.00 64 1019.1
20260503174033 13 0 0.0 1.6 0.00 0.00 0.00 64 1019.0
20260503173532 13 0 1.6 3.2 0.00 0.00 0.00 63 1019.0
20260503173035 13 0 3.2 4.8 0.00 0.00 0.00 65 1019.0
20260503172529 13 0 3.2 3.2 0.00 0.00 0.00 66 1019.1
20260503172029 13 0 0.0 4.8 0.00 0.00 0.00 66 1019.0
20260503171529 13 0 4.8 4.8 0.00 0.00 0.00 65 1018.9
20260503171032 13 0 1.6 4.8 0.00 0.00 0.00 64 1019.0
20260503170533 13 0 0.0 6.4 0.00 0.00 0.00 64 1018.9
20260503150532 16 0 3.2 4.8 0.00 0.00 0.00 49 1018.1
20260503131030 15 0 4.8 8.0 0.00 0.00 0.00 59 1018.2
20260503130532 15 0 4.8 14.5 0.00 0.00 0.00 61 1018.3
20260503110529 16 0 1.6 4.8 0.00 0.00 0.00 39 1018.5
20260503081532 11 0 3.2 3.2 0.00 0.00 0.00 59 1018.7
20260503081029 11 0 0.0 3.2 0.00 0.00 0.00 60 1018.7
20260503080529 11 0 0.0 1.6 0.00 0.00 0.00 61 1018.6
20260503072535 11 0 0.0 1.6 0.00 0.00 0.00 51 1018.7
20260503072031 11 0 0.0 0.0 0.00 0.00 0.00 51 1018.7
20260503071532 11 0 0.0 1.6 0.00 0.00 0.00 51 1018.7
20260503071029 10 0 0.0 1.6 0.00 0.00 0.00 54 1018.8
20260503070535 10 0 0.0 1.6 0.00 0.00 0.00 52 1018.8
20260503055035 9 0 0.0 1.6 0.00 0.00 0.00 51 1019.1
20260503054532 8 0 1.6 1.6 0.00 0.00 0.00 51 1019.1
20260503054034 8 0 0.0 1.6 0.00 0.00 0.00 50 1019.2
20260503053535 8 0 1.6 1.6 0.00 0.00 0.00 49 1019.0
20260503053029 8 0 0.0 1.6 0.00 0.00 0.00 49 1019.1
20260503052537 8 0 0.0 1.6 0.00 0.00 0.00 55 1018.9
20260503052034 8 0 0.0 1.6 0.00 0.00 0.00 53 1018.8
20260503051532 8 0 0.0 1.6 0.00 0.00 0.00 53 1018.9
20260503051035 8 0 0.0 1.6 0.00 0.00 0.00 54 1019.0
20260503050529 8 0 0.0 3.2 0.00 0.00 0.00 48 1019.0
20260503050029 8 0 1.6 1.6 0.00 0.00 0.00 52 1019.1
20260503045532 8 0 0.0 1.6 0.00 0.00 0.00 48 1019.0
20260503045028 7 0 1.6 1.6 0.00 0.00 0.00 52 1019.2
20260503044529 7 0 1.6 1.6 0.00 0.00 0.00 52 1019.2
20260503044032 7 0 0.0 1.6 0.00 0.00 0.00 51 1019.3
20260503043532 7 0 1.6 1.6 0.00 0.00 0.00 50 1019.2
20260503043028 7 0 1.6 1.6 0.00 0.00 0.00 51 1019.4
20260503042528 7 0 0.0 1.6 0.00 0.00 0.00 52 1019.4
20260503042029 7 0 1.6 3.2 0.00 0.00 0.00 54 1019.5
20260503041531 7 0 1.6 1.6 0.00 0.00 0.00 54 1019.5
20260503041032 7 0 0.0 1.6 0.00 0.00 0.00 53 1019.6
20260503040531 7 0 0.0 1.6 0.00 0.00 0.00 55 1019.6
20260503040029 7 0 1.6 1.6 0.00 0.00 0.00 55 1019.8
20260503035532 7 0 0.0 1.6 0.00 0.00 0.00 54 1019.7
20260503035029 7 0 0.0 3.2 0.00 0.00 0.00 54 1019.8
20260503034532 7 0 1.6 1.6 0.00 0.00 0.00 54 1020.0
20260503034035 6 0 1.6 1.6 0.00 0.00 0.00 54 1019.9
20260503033529 6 0 1.6 3.2 0.00 0.00 0.00 55 1020.1
20260503033029 6 0 0.0 1.6 0.00 0.00 0.00 56 1020.2
20260503032529 7 0 0.0 1.6 0.00 0.00 0.00 53 1020.2
20260503032029 7 0 0.0 1.6 0.00 0.00 0.00 52 1020.4
20260503031534 7 0 1.6 1.6 0.00 0.00 0.00 55 1020.4
20260503031029 7 0 0.0 1.6 0.00 0.00 0.00 53 1020.5
20260503030535 7 0 0.0 1.6 0.00 0.00 0.00 55 1020.6
20260503030029 7 0 0.0 3.2 0.00 0.00 0.00 53 1020.6
20260503025528 7 0 1.6 3.2 0.00 0.00 0.00 52 1020.6
20260503025032 7 0 3.2 3.2 0.00 0.00 0.00 51 1020.7
20260503024535 7 0 1.6 3.2 0.00 0.00 0.00 50 1020.7
20260503024029 7 0 1.6 3.2 0.00 0.00 0.00 51 1020.9
20260503023532 7 0 1.6 3.2 0.00 0.00 0.00 52 1020.7
20260503023032 7 0 1.6 3.2 0.00 0.00 0.00 53 1021.0
20260503022535 7 0 1.6 1.6 0.00 0.00 0.00 52 1021.1
20260503022038 7 0 0.0 3.2 0.00 0.00 0.00 52 1021.1
20260503021529 7 0 1.6 3.2 0.00 0.00 0.00 52 1021.2
20260503021033 7 0 1.6 3.2 0.00 0.00 0.00 54 1021.3
20260503020531 7 0 3.2 4.8 0.00 0.00 0.00 55 1021.3
20260503020029 7 0 0.0 4.8 0.00 0.00 0.00 53 1021.5
20260503015531 7 0 1.6 1.6 0.00 0.00 0.00 56 1021.5
20260503015029 7 0 1.6 1.6 0.00 0.00 0.00 54 1021.5
20260503014529 7 0 0.0 3.2 0.00 0.00 0.00 57 1021.5
20260503014032 7 0 1.6 1.6 0.00 0.00 0.00 58 1021.5
20260503013531 7 0 1.6 3.2 0.00 0.00 0.00 55 1021.6
20260503013029 7 0 1.6 3.2 0.00 0.00 0.00 57 1021.8
20260503012531 7 0 1.6 3.2 0.00 0.00 0.00 55 1021.8
20260503012032 7 0 1.6 3.2 0.00 0.00 0.00 57 1021.9
20260503011529 7 0 1.6 3.2 0.00 0.00 0.00 57 1021.9
20260503011032 7 0 1.6 1.6 0.00 0.00 0.00 58 1022.1
20260503010531 7 0 0.0 1.6 0.00 0.00 0.00 57 1022.1
20260503010035 7 0 1.6 1.6 0.00 0.00 0.00 60 1022.0
20260503005529 7 0 0.0 1.6 0.00 0.00 0.00 58 1022.1
20260503005032 7 0 0.0 3.2 0.00 0.00 0.00 59 1022.3
20260503004537 7 0 1.6 3.2 0.00 0.00 0.00 57 1022.3
20260503004029 7 0 0.0 3.2 0.00 0.00 0.00 58 1022.3
20260503003528 7 0 1.6 3.2 0.00 0.00 0.00 59 1022.5
20260503003034 7 0 1.6 3.2 0.00 0.00 0.00 58 1022.5
20260503002531 7 0 0.0 1.6 0.00 0.00 0.00 59 1022.7
20260503002028 7 0 1.6 3.2 0.00 0.00 0.00 60 1022.5
20260503001528 7 0 1.6 1.6 0.00 0.00 0.00 59 1022.7
20260503001029 7 0 1.6 1.6 0.00 0.00 0.00 59 1022.7
20260503000528 7 0 0.0 3.2 0.00 0.00 0.00 59 1022.9
20260503000029 7 0 1.6 3.2 0.00 0.00 0.00 60 1023.2
20260502235528 7 0 0.0 3.2 0.00 0.00 0.00 58 1023.1
20260502235029 7 0 1.6 1.6 0.00 0.00 0.00 59 1023.3
20260502234535 7 0 0.0 1.6 0.00 0.00 0.00 60 1023.4
20260502234028 7 0 1.6 1.6 0.00 0.00 0.00 59 1023.4
20260502233531 7 0 1.6 3.2 0.00 0.00 0.00 59 1023.3
20260502233038 7 0 1.6 3.2 0.00 0.00 0.00 59 1023.3
20260502232528 7 0 1.6 3.2 0.00 0.00 0.00 60 1023.6
20260502232031 7 0 1.6 3.2 0.00 0.00 0.00 60 1023.5
20260502231533 7 0 0.0 1.6 0.00 0.00 0.00 62 1023.6
20260502231029 7 0 1.6 3.2 0.00 0.00 0.00 62 1023.6
20260502230528 7 0 1.6 3.2 0.00 0.00 0.00 61 1023.7
20260502230032 8 0 1.6 3.2 0.00 0.00 0.00 60 1023.7
20260502225532 8 0 1.6 3.2 0.00 0.00 0.00 60 1023.6
20260502225031 8 0 3.2 3.2 0.00 0.00 0.00 60 1023.7
20260502224528 8 0 1.6 3.2 0.00 0.00 0.00 59 1023.8
20260502224028 8 0 0.0 3.2 0.00 0.00 0.00 60 1023.9
20260502223528 8 0 1.6 3.2 0.00 0.00 0.00 61 1023.9
20260502223029 8 0 1.6 3.2 0.00 0.00 0.00 61 1023.8
20260502222532 8 0 1.6 3.2 0.00 0.00 0.00 60 1023.9
20260502222034 8 0 3.2 3.2 0.00 0.00 0.00 62 1023.9
20260502221528 8 0 1.6 3.2 0.00 0.00 0.00 62 1023.9
20260502221035 8 0 1.6 3.2 0.00 0.00 0.00 63 1024.1
20260502220528 8 0 1.6 3.2 0.00 0.00 0.00 62 1024.2
20260502220028 8 0 1.6 3.2 0.00 0.00 0.00 61 1024.0
20260502215528 8 0 1.6 1.6 0.00 0.00 0.00 62 1024.0
20260502215029 8 0 0.0 3.2 0.00 0.00 0.00 61 1024.1
20260502214535 8 0 1.6 1.6 0.00 0.00 0.00 63 1024.3
20260502214031 8 0 0.0 3.2 0.00 0.00 0.00 63 1024.3
20260502213528 8 0 1.6 3.2 0.00 0.00 0.00 63 1024.3
20260502213035 8 0 1.6 3.2 0.00 0.00 0.00 64 1024.2
20260502212529 8 0 3.2 3.2 0.00 0.00 0.00 64 1024.4
20260502212034 8 0 1.6 3.2 0.00 0.00 0.00 65 1024.5
20260502211534 8 0 1.6 3.2 0.00 0.00 0.00 63 1024.5
20260502211031 8 0 0.0 1.6 0.00 0.00 0.00 65 1024.5
20260502210531 8 0 1.6 3.2 0.00 0.00 0.00 65 1024.5
20260502210040 8 0 1.6 3.2 0.00 0.00 0.00 64 1024.5
20260502205528 8 0 1.6 3.2 0.00 0.00 0.00 63 1024.6
20260502205028 8 0 3.2 3.2 0.00 0.00 0.00 63 1024.6
20260502204528 8 0 1.6 3.2 0.00 0.00 0.00 65 1024.6
20260502204029 8 0 1.6 3.2 0.00 0.00 0.00 64 1024.7
20260502203535 8 0 1.6 3.2 0.00 0.00 0.00 63 1024.6
20260502203028 8 0 1.6 3.2 0.00 0.00 0.00 65 1024.6
20260502202531 8 0 1.6 1.6 0.00 0.00 0.00 64 1024.8
20260502202028 8 0 1.6 3.2 0.00 0.00 0.00 65 1024.7
20260502201529 8 0 0.0 3.2 0.00 0.00 0.00 64 1024.7
20260502201029 9 0 0.0 3.2 0.00 0.00 0.00 63 1024.8
20260502200531 9 0 1.6 1.6 0.00 0.00 0.00 65 1024.7
20260502200031 9 0 1.6 3.2 0.00 0.00 0.00 64 1024.9
20260502195531 9 0 1.6 3.2 0.00 0.00 0.00 64 1024.8
20260502195031 9 0 0.0 3.2 0.00 0.00 0.00 64 1024.9
20260502194534 9 0 0.0 3.2 0.00 0.00 0.00 65 1024.9
20260502194028 9 0 0.0 3.2 0.00 0.00 0.00 63 1024.9
20260502193528 9 0 0.0 1.6 0.00 0.00 0.00 63 1024.9
20260502193028 9 0 1.6 4.8 0.00 0.00 0.00 62 1024.8
20260502192534 10 0 0.0 3.2 0.00 0.00 0.00 64 1024.6
20260502192028 10 0 0.0 3.2 0.00 0.00 0.00 62 1024.6
20260502191528 10 0 1.6 3.2 0.00 0.00 0.00 62 1024.6
20260502191029 10 0 0.0 3.2 0.00 0.00 0.00 63 1024.5
20260502190528 10 0 1.6 3.2 0.00 0.00 0.00 62 1024.4
20260502190028 10 0 1.6 3.2 0.00 0.00 0.00 61 1024.4
20260502185528 10 0 1.6 4.8 0.00 0.00 0.00 63 1024.3
20260502185028 10 0 3.2 3.2 0.00 0.00 0.00 62 1024.3
20260502184534 11 0 0.0 4.8 0.00 0.00 0.00 59 1024.2
20260502184031 11 0 1.6 1.6 0.00 0.00 0.00 62 1024.3
20260502183534 11 0 1.6 1.6 0.00 0.00 0.00 61 1024.2